M9XDX-WX Weather Reports


time (UTC)temp
F
wind
direction
speed
knots
gust
knots
rain 1hr
in
rain 24hr
in
rain mn
in
humidity
%
barometer
mb
20260505214003 52 356 2.6 6.1 0.00 0.00 0.00 68 1012.6
20260505213003 52 1 2.6 6.1 0.00 0.00 0.00 68 1012.8
20260505212220 52 360 2.6 6.1 0.00 0.00 0.00 68 1012.8
20260505211003 52 355 3.5 7.0 0.00 0.00 0.00 67 1012.7
20260505210003 52 354 3.5 7.8 0.00 0.00 0.00 67 1012.7
20260505205218 53 355 4.3 9.6 0.00 0.00 0.00 66 1012.8
20260505204003 53 359 4.3 8.7 0.00 0.00 0.00 66 1012.7
20260505203003 53 2 3.5 7.8 0.00 0.00 0.00 66 1012.6
20260505202003 53 356 4.3 9.6 0.00 0.00 0.00 66 1012.8
20260505201003 53 357 4.3 8.7 0.00 0.00 0.00 66 1012.6
20260505200218 53 359 4.3 7.8 0.00 0.00 0.00 67 1012.6
20260505195219 53 3 3.5 8.7 0.00 0.00 0.00 68 1012.4
20260505194003 54 360 3.5 7.8 0.00 0.00 0.00 66 1012.4
20260505193003 54 357 4.3 8.7 0.00 0.00 0.00 66 1012.1
20260505192216 54 358 4.3 9.6 0.00 0.00 0.00 65 1012.3
20260505191003 54 358 4.3 11.3 0.00 0.00 0.00 63 1012.0
20260505190003 54 356 3.5 7.0 0.00 0.00 0.00 63 1012.1
20260505185219 55 352 3.5 8.7 0.00 0.00 0.00 61 1012.2
20260505184220 55 356 4.3 9.6 0.00 0.00 0.00 60 1012.0
20260505183003 56 357 3.5 7.8 0.00 0.00 0.00 59 1012.0
20260505182003 57 1 4.3 8.7 0.00 0.00 0.00 57 1011.9
20260505181003 56 358 4.3 9.6 0.00 0.00 0.00 58 1012.1
20260505180003 57 359 4.3 8.7 0.00 0.00 0.00 58 1012.1
20260505175003 58 352 3.5 7.8 0.00 0.00 0.00 57 1012.3
20260505174003 57 354 4.3 8.7 0.00 0.00 0.00 57 1012.3
20260505173003 57 353 3.5 9.6 0.00 0.00 0.00 55 1012.0
20260505172003 58 355 3.5 8.7 0.00 0.00 0.00 54 1012.0
20260505171003 57 358 3.5 8.7 0.00 0.00 0.00 55 1012.4
20260505170003 57 355 3.5 7.8 0.00 0.00 0.00 55 1012.2
20260505165003 57 355 4.3 8.7 0.00 0.00 0.00 54 1012.1
20260505164003 58 8 5.2 11.3 0.00 0.00 0.00 55 1012.2
20260505163217 58 357 4.3 12.2 0.00 0.00 0.00 54 1012.2
20260505162003 59 347 3.5 7.0 0.00 0.00 0.00 54 1012.1
20260505161003 58 1 4.3 11.3 0.00 0.00 0.00 56 1012.1
20260505153003 58 356 5.2 9.6 0.00 0.00 0.00 56 1012.3
20260505152003 58 347 5.2 12.2 0.00 0.00 0.00 56 1012.3
20260505151003 58 352 6.1 12.2 0.00 0.00 0.00 57 1012.1
20260505124003 59 4 4.3 7.8 0.00 0.00 0.00 51 1012.7
20260505123003 60 8 4.3 11.3 0.00 0.00 0.00 49 1012.8
20260505122003 58 9 4.3 11.3 0.00 0.00 0.00 51 1012.7
20260505121003 59 359 4.3 9.6 0.00 0.00 0.00 50 1012.8
20260505120003 57 10 5.2 15.6 0.00 0.00 0.00 52 1012.8
20260505115003 59 1 4.3 8.7 0.00 0.00 0.00 53 1012.5
20260505114003 60 7 5.2 11.3 0.00 0.00 0.00 49 1012.5
20260505113003 60 3 4.3 9.6 0.00 0.00 0.00 50 1012.7
20260505112003 59 6 4.3 9.6 0.00 0.00 0.00 51 1012.9
20260505111003 59 8 5.2 11.3 0.00 0.00 0.00 52 1012.9
20260505102003 58 3 4.3 8.7 0.00 0.00 0.00 55 1013.0
20260505101218 56 355 4.3 9.6 0.00 0.00 0.00 58 1013.1
20260505100003 56 357 4.3 9.6 0.00 0.00 0.00 55 1013.1
20260505095003 58 354 5.2 12.2 0.00 0.00 0.00 54 1013.0
20260505094003 58 5 4.3 12.2 0.00 0.00 0.00 56 1013.2
20260505093003 56 11 5.2 9.6 0.00 0.00 0.00 58 1013.1
20260505092003 56 18 6.1 13.9 0.00 0.00 0.00 59 1013.2
20260505091003 56 14 5.2 11.3 0.00 0.00 0.00 57 1013.3
20260505090003 57 360 4.3 8.7 0.00 0.00 0.00 56 1013.2
20260505085003 56 4 5.2 12.2 0.00 0.00 0.00 58 1013.4
20260505084003 56 7 4.3 9.6 0.00 0.00 0.00 60 1013.4
20260505083003 56 2 3.5 7.0 0.00 0.00 0.00 63 1013.5
20260505082003 54 6 3.5 9.6 0.00 0.00 0.00 66 1013.4
20260505081003 53 12 3.5 11.3 0.00 0.00 0.00 67 1013.5
20260505080003 53 1 1.7 3.5 0.00 0.00 0.00 70 1013.5
20260505075003 52 353 3.5 7.0 0.00 0.00 0.00 70 1013.4
20260505074003 52 1 3.5 7.8 0.00 0.00 0.00 70 1013.5
20260505073218 52 355 3.5 7.8 0.00 0.00 0.00 70 1013.7
20260505072003 51 358 3.5 7.8 0.00 0.00 0.00 70 1013.5
20260505071003 51 11 3.5 9.6 0.00 0.00 0.00 71 1013.5
20260505070003 51 7 3.5 9.6 0.00 0.00 0.00 72 1013.5
20260505065217 51 9 2.6 7.0 0.00 0.00 0.00 75 1013.7
20260505064003 51 6 2.6 6.1 0.00 0.00 0.00 76 1013.6
20260505063003 50 6 1.7 3.5 0.00 0.00 0.00 78 1013.4
20260505062220 50 11 1.7 5.2 0.00 0.00 0.00 79 1013.6
20260505061003 50 11 2.6 6.1 0.00 0.00 0.00 79 1013.5
20260505060216 50 11 1.7 3.5 0.00 0.00 0.00 80 1013.4
20260505055003 50 9 1.7 3.5 0.00 0.00 0.00 80 1013.4
20260505054003 49 8 0.9 3.5 0.00 0.00 0.00 81 1013.8
20260505053219 49 8 0.9 1.7 0.00 0.00 0.00 82 1013.7
20260505052003 49 6 0.9 2.6 0.00 0.00 0.00 86 1013.6
20260505051003 49 3 0.0 0.9 0.00 0.00 0.00 88 1013.7
20260505041003 49 2 0.9 2.6 0.00 0.00 0.00 89 1013.4
20260505040003 48 6 1.7 3.5 0.00 0.00 0.00 90 1013.1
20260505035003 48 357 1.7 5.2 0.00 0.00 0.00 90 1013.2
20260505034003 48 355 2.6 6.1 0.00 0.00 0.00 91 1013.3
20260505033003 48 356 2.6 5.2 0.00 0.00 0.00 92 1013.2
20260505032003 48 358 0.9 3.5 0.00 0.00 0.00 92 1013.4
20260505031003 48 357 0.9 2.6 0.00 0.00 0.00 92 1013.7
20260505030218 48 357 0.9 0.9 0.00 0.00 0.00 92 1013.7
20260505025003 48 357 0.0 0.9 0.00 0.00 0.00 91 1013.7
20260505024003 48 357 0.0 0.9 0.00 0.00 0.00 91 1013.7
20260505023003 48 357 0.0 0.9 0.00 0.00 0.00 90 1013.6
20260505022003 47 354 0.0 0.9 0.00 0.00 0.00 89 1013.8
20260505021003 48 353 0.0 1.7 0.00 0.00 0.00 89 1013.8
20260505020003 48 354 0.0 0.9 0.00 0.00 0.00 89 1013.9
20260505015220 48 0 0.0 0.0 0.00 0.00 0.00 88 1013.7
20260505014221 48 0 0.0 0.0 0.00 0.00 0.00 88 1013.7
20260505013217 49 348 0.0 1.7 0.00 0.00 0.00 87 1014.0
20260505012003 49 347 0.9 1.7 0.00 0.00 0.00 87 1013.8
20260505011003 49 352 0.9 2.6 0.00 0.00 0.00 86 1013.7
20260505010220 49 357 1.7 3.5 0.00 0.00 0.00 86 1013.8
20260505005004 49 352 2.6 3.5 0.00 0.00 0.00 86 1013.6
20260505004003 49 347 1.7 3.5 0.00 0.00 0.00 86 1013.9
20260505003003 49 348 0.9 2.6 0.00 0.00 0.00 86 1014.0
20260505002003 50 348 0.9 2.6 0.00 0.00 0.00 86 1013.8
20260505001003 50 346 0.9 1.7 0.00 0.00 0.00 86 1014.2
20260505000003 50 352 0.9 1.7 0.00 0.00 0.00 85 1014.2
20260504235003 51 357 0.9 2.6 0.00 0.00 0.00 84 1014.4
20260504234003 51 4 0.9 2.6 0.00 0.00 0.00 84 1014.4
20260504233003 51 6 0.9 1.7 0.00 0.00 0.00 84 1014.3
20260504232003 52 4 0.9 3.5 0.00 0.00 0.00 84 1014.3
20260504231003 52 5 0.9 2.6 0.00 0.00 0.00 84 1014.1
20260504230003 52 6 0.9 2.6 0.00 0.00 0.00 84 1014.3
20260504225003 52 12 1.7 3.5 0.00 0.00 0.00 84 1014.2
20260504224003 52 15 1.7 5.2 0.00 0.00 0.00 83 1014.1
20260504223003 53 16 2.6 6.1 0.00 0.00 0.00 82 1014.2
20260504222003 53 15 2.6 5.2 0.00 0.00 0.00 82 1013.9
20260504221221 53 13 1.7 5.2 0.00 0.00 0.00 82 1014.1
20260504220003 53 6 1.7 3.5 0.00 0.00 0.00 82 1014.2
20260504215003 53 10 1.7 5.2 0.00 0.00 0.00 82 1014.1